sat.trackr.live / text

‹ back to catalog

STARLINK-35326

NORAD 66031 · 2025-232AC

PAYLOAD ACTIVE UNKNOWN

§ Identity

Operator
Country
US
Launch date
2025-10-16
Launch site
AFETR
Launch vehicle
Mass (kg)
RCS (m²)

Purposes: comms

External: N2YO · Heavens-Above · Gunter

§ Orbital elements

Epoch: 2026-09-20T07:20:30.228288Z

Period
93.85 min
Inclination
53.1588°
Eccentricity
0.0001540
Mean motion
15.34408370 rev/d
Perigee alt
461.6 km
Apogee alt
463.7 km
Semi-major
6,840.8 km
B*
4.1746e-4
RAAN
276.2722°
Arg perigee
80.6620°
Mean anomaly
279.4557°
Rev number
5,328

§ Raw data

STARLINK-353261 66031U 25232AC  26263.30590542  .00013758  00000+0  41746-3 0  99952 66031  53.1588 276.2722 0001540  80.6620 279.4557 15.34408370 53280

JSON: /api/v1/satellites/66031 · /tle

For live sub-satellite position, see the globe view (requires WebGL).

§ Visibility from observer

Set your observer location to see the next 7 days of passes ≥ 10°. The values pass through the URL so the page stays shareable.

No JS? Fill the form by hand. The geolocation button needs JavaScript.